sat.trackr.live / text

‹ back to catalog

CBERS 4A

NORAD 44883 · 2019-093E

PAYLOAD ACTIVE UNKNOWN

§ Identity

Operator
Country
CHBZ
Launch date
2019-12-20
Launch site
TAISC
Launch vehicle
Mass (kg)
RCS (m²)

External: N2YO · Heavens-Above · Gunter

§ Orbital elements

Epoch: 2026-09-13T03:56:21.912864Z

Period
97.20 min
Inclination
98.0122°
Eccentricity
0.0001982
Mean motion
14.81526789 rev/d
Perigee alt
623.1 km
Apogee alt
625.9 km
Semi-major
7,002.6 km
B*
1.3421e-4
RAAN
323.6488°
Arg perigee
54.0872°
Mean anomaly
306.0524°
Rev number
36,410

§ Raw data

CBERS 4A1 44883U 19093E   26256.16414251  .00000999  00000+0  13421-3 0  99942 44883  98.0122 323.6488 0001982  54.0872 306.0524 14.81526789364106

JSON: /api/v1/satellites/44883 · /tle

For live sub-satellite position, see the globe view (requires WebGL).

§ Visibility from observer

Set your observer location to see the next 7 days of passes ≥ 10°. The values pass through the URL so the page stays shareable.

No JS? Fill the form by hand. The geolocation button needs JavaScript.

§ Radio — SatNOGS DB

ModeDescriptionDownlinkUplink
FM S-band telemetry 2.204 GHz

1 transmitter · refreshed weekly from db.satnogs.org